Location: West Sayville
(40.7279°N, 73.0976°W)
Time: 05:21:44
(UTC+00:00)

Cosmos 44 Rocket - Pass Details

Date: 29 October 2020
Orbit: 642 x 748 km, 65.1° (Epoch: 29 November)

Event Time Altitude Azimuth Distance (km) Brightness Sun altitude
Rises 23:06:09 0° 199° (SSW) 2,965 6.9 -14.6°
Reaches altitude 10° 23:08:26 10° 195° (SSW) 2,071 6.0 -15.1°
Maximum altitude 23:13:02 57° 118° (ESE) 793 3.3 -15.9°
Enters shadow 23:16:14 20° 45° (NE) 1,558 4.7 -16.5°
